Flag for Peru Weather past 2 weeks in Trujillo, La Libertad, Peru

Now
73 °F

Sunny.


Feels Like: 76 °F
Forecast: 66 / 75 °F
Wind: 7 mph from South

Location: Trujillo Airport


UV Index: 3 (Moderate)

Visibility: 10 mi


Pressure: 29.92 "Hg

Humidity: 69%

Dew point: 63 °F

Location of TrujilloLocation

Historic Weather in Trujillo

°F

Trujillo temperature yesterday

Maximum temperature yesterday: 73 °F (at 3:00 PM)
Minimum temperature yesterday: 66 °F (at 12:00 AM)
Average temperature yesterday: 68 °F

Past Weeks' High & Low Weather Summary

 TemperatureHumidityPressure
High73 °F (Apr 23, 3:00 PM)100% (Apr 14, 1:00 AM)29.98 "Hg (Apr 14, 1:00 AM)
Low61 °F (Apr 10, 6:00 AM)65% (Apr 17, 2:00 PM)29.77 "Hg (Apr 18, 3:00 PM)
Average66 °F85%29.87 "Hg
* Reported Apr 9 10:00 AM — Apr 24 10:00 AM, Trujillo, Weather by CustomWeather, © 2014

Note: Actual official high and low records may vary slightly from our data, if they occured in-between our weather recording intervals... More about our weather records

Advertising

Historic Weather Conditions — Data for Previous 24 hours

 ConditionsComfort  
Time TempWeatherWind HumidityBarometerVisibility
10:00 AM
Apr 24
72 °FSunny.8 mph73%29.95 "Hg10 mi
9:00 AM70 °FPassing clouds.8 mph78%29.92 "Hg5 mi
8:00 AM68 °FPartly sunny.8 mph88%29.92 "Hg5 mi
7:00 AM68 °FBroken clouds.6 mph83%29.89 "HgN/A
6:00 AM66 °FOvercast.7 mph88%29.86 "Hg5 mi
5:00 AM68 °FOvercast.8 mph83%29.86 "HgN/A
4:00 AM68 °FOvercast.12 mph83%29.86 "Hg6 mi
3:00 AM68 °FOvercast.9 mph83%29.86 "HgN/A
2:00 AM68 °FPartly cloudy.6 mph83%29.89 "Hg6 mi
1:00 AM68 °FOvercast.6 mph83%29.89 "Hg5 mi
12:00 AM70 °FOvercast.8 mph78%29.89 "HgN/A
11:00 PM
Apr 23
68 °FOvercast.8 mph83%29.92 "HgN/A
10:00 PM68 °FOvercast.8 mph83%29.89 "HgN/A
9:00 PM70 °FPassing clouds.10 mph78%29.89 "HgN/A
8:00 PM70 °FMostly cloudy.10 mph78%29.86 "Hg6 mi
7:00 PM70 °FPassing clouds.9 mph78%29.86 "HgN/A
6:00 PM70 °FPassing clouds.13 mph78%29.83 "HgN/A
5:00 PM70 °FPassing clouds.12 mph78%29.80 "HgN/A
4:00 PM72 °FPassing clouds.13 mph73%29.80 "HgN/A
3:00 PM73 °FScattered clouds.14 mph74%29.83 "HgN/A
2:00 PM72 °FPassing clouds.14 mph73%29.83 "HgN/A
11:00 AM70 °FPassing clouds.15 mph78%29.89 "Hg6 mi
Weather by CustomWeather, © 2014

See weather overview